Regional Weather Roundup
Issued by NWS

Home | Current Version | Previous Version | Graphics & Text | Print | Product List | Glossary Off
Versions: 1 2 3 4 5 6 7 8 9 10 11 12 13 14 15 16 17 18 19 20 21 22 23 24 25 26 27 28 29 30 31 32 33 34 35 36 37 38 39 40 41 42 43 44 45 46 47 48 49 50

000
ASUS43 KDTX 201010
RWRMI
MICHIGAN HOURLY REGIONAL WEATHER ROUNDUP
NATIONAL WEATHER SERVICE DETROIT/PONTIAC MI
500 AM EST MON NOV 20 2017

NOTE: "FAIR" INDICATES FEW OR NO CLOUDS BELOW 12,000 FEET WITH NO
SIGNIFICANT WEATHER AND/OR OBSTRUCTION TO VISIBILITY.

MIZ047>049-052>055-059>063-066>070-074>076-081>083-201100-
SOUTHEAST LOWER MICHIGAN

CITY           SKY/WX    TMP DP  RH WIND       PRES   REMARKS
ADRIAN         CLEAR     27  22  81 W7        30.05S WCI  19
ALMA           CLOUDY    32  28  84 SW8       29.94F WCI  25
ANN ARBOR      MOCLDY    26  23  88 S6        30.01F WCI  19
BAD AXE        CLOUDY    28  22  78 SW6       29.93F WCI  22
CARO           CLOUDY    30  24  79 SW7       29.94S WCI  23
DETROIT CITY   CLOUDY    30  23  75 SW12      30.02S WCI  20
DETROIT        CLOUDY    30  23  75 SW13      30.02F WCI  20
FLINT          CLOUDY    31  24  75 SW12      29.97F WCI  22
GROSSE ILE     CLOUDY    30  24  79 SW9       30.04R WCI  22
HILLSDALE      CLEAR     28  21  74 SW7       30.01F WCI  21
HOWELL         PTCLDY    30  26  85 SW8       29.98F WCI  23

CITY           SKY/WX    TMP DP  RH WIND       PRES   REMARKS
JACKSON        CLEAR     29  22  75 SW10      30.00F WCI  20
LAMBERTVILLE   CLOUDY    32  23  69 SW9       30.07S WCI  24
LANSING        CLEAR     30  25  81 SW12      29.98F WCI  20
LAPEER         CLOUDY    31  24  76 SW6       29.96F WCI  25
MASON          CLEAR     32  26  79 SW5       29.98F WCI  27
MONROE         CLOUDY    31  25  76 SW10      30.04S WCI  23
MT. CLEMENS    CLOUDY    30  25  81 SW12      29.98S WCI  21
PONTIAC        CLOUDY    28  24  85 SW5       29.97F WCI  23
PORT HOPE        N/A     27  21  78 SW5       29.91F WCI  22
PORT HURON     CLOUDY    28  21  74 S6        29.99F WCI  22
TRI CITIES     CLOUDY    31  25  78 S8        29.93F WCI  23
MIDLAND        CLOUDY    31  25  76 SW3       29.92S
TROY           CLOUDY    32  25  74 SW9       30.02S WCI  24
SAGINAW HB     CLOUDY    32  27  80 SW8       29.94S WCI  25
$$
MIZ043>046-050>051-056>058-064>065-071>073-077>080-201100-
SOUTHWEST LOWER MICHIGAN

CITY           SKY/WX    TMP DP  RH WIND       PRES   REMARKS
BATTLE CREEK   CLEAR     27  22  81 SW10      30.00F WCI  17
BENTON HARBOR  CLEAR     31  21  66 S10       30.01S WCI  22
BIG RAPIDS     PTCLDY    27  23  84 SE5       29.89F WCI  22
COLDWATER      CLEAR     27  21  78 SW8       30.03S WCI  19
FREMONT        FAIR      31  29  94 SW7       29.91F WCI  24
HOLLAND        CLEAR     39  31  72 SW13      29.96F WCI  31
GRAND RAPIDS   CLEAR     31  28  89 S13       29.95F WCI  21
IONIA          FAIR      31  26  83 S12       29.94F WCI  21
KALAMAZOO      CLEAR     29  20  69 SW12      30.01S WCI  19
LUDINGTON      CLEAR     37  30  77 W8        29.88F WCI  31
MARSHALL       CLEAR     27  21  79 SW5       30.00F WCI  22
MOUNT PLEASANT CLOUDY    33  26  76 SW6       29.91S WCI  27
MUSKEGON       CLEAR     41  31  67 W14       29.93F
SOUTH HAVEN    CLEAR     32  26  78 S9        29.99S WCI  24
$$
MIZ016>042-201100-
NORTHERN LOWER MICHIGAN

CITY           SKY/WX    TMP DP  RH WIND       PRES   REMARKS
ALPENA         CLOUDY    30  24  78 SW8       29.86S WCI  22
BEAVER ISLAND  CLEAR     31  20  64 W6        29.85R WCI  25
BELLAIRE       CLOUDY    31  26  83 S6        29.86F WCI  25
CADILLAC       CLOUDY    25  22  89 SW6       29.85S WCI  18
CHARLEVOIX     CLOUDY    36  26  68 W9        29.87F WCI  29
FRANKFORT      CLOUDY    39  29  69 W8G17     29.86F WCI  33
GAYLORD        CLOUDY    24  20  84 SW6       29.82S WCI  17
GRAYLING       CLOUDY    26  21  82 CALM      29.85F
HARBOR SPRINGS CLOUDY    31  22  70 NW5       29.84S WCI  26
MANISTEE       CLOUDY    32  27  81 CALM      29.87F
OSCODA         CLEAR     23  18  81 SW7       29.90S WCI  15
PELLSTON       PTCLDY    24  19  81 NW5       29.84F WCI  18
ROGERS CITY    CLOUDY    29  22  73 CALM      29.86S
TRAVERSE CITY  CLOUDY    31  24  75 S5        29.85F WCI  26
$$
MIZ007>008-015-201100-
EASTERN UPPER MICHIGAN

CITY           SKY/WX    TMP DP  RH WIND       PRES   REMARKS
KINROSS        CLOUDY    26  19  74 W7        29.82S WCI  18
MACKINAC ISLAN CLOUDY    31  22  69 W9        29.83S WCI  23
NEWBERRY       CLOUDY    25  22  87 SW6       29.81S WCI  18
S. S. MARIE    CLOUDY    28  20  71 SW8       29.80S WCI  20
MUNISING         N/A     24  17  74 SW7       29.81F WCI  16
$$
MIZ004>006-011>014-085-201100-
CENTRAL UPPER MICHIGAN

CITY           SKY/WX    TMP DP  RH WIND       PRES   REMARKS
MANISTIQUE     CLEAR     24  11  57 W5        29.83F WCI  19
ESCANABA       CLOUDY    22  19  89 NW3       29.84F
MENOMINEE      PTCLDY    27  20  75 SW3       29.85F
SAWYER-GWINN   CLOUDY    18  16  90 S5        29.79F WCI  11
$$
MIZ001>003-009>011-084-201100-
WESTERN UPPER MICHIGAN

CITY           SKY/WX    TMP DP  RH WIND       PRES   REMARKS
IRON MOUNTAIN  CLOUDY    20  15  81 CALM      29.78F
HOUGHTON       CLOUDY    25  21  85 E5        29.74F WCI  19
COPPER HARBOR    N/A     22  17  81 SW3       29.78F
IRONWOOD       CLOUDY   N/A N/A N/A CALM      29.73F
$$

ABBREVIATIONS USED IN REMARKS
   TC - TEMPERATURE IN CELSIUS
  WCI - WIND CHILL INDEX
   HX - HEAT INDEX
  VSB - VISIBILITY





USA.gov is the U.S. government's official web portal to all federal, state and local government web resources and services.